When you browse on this site, cookies collect data to enhance your experience and personalize the content and advertising you see.
Visit our Privacy Policy to learn more. By continuing to use the site, you agree to this use of cookies and data.
  • In Deutschland
  • Länderverzeichnis
  • Für 7 Tage
  • Wassertemperatur
  • Wetterkarte
  • Widgets
  • user-avatar
    Anmelden

    Stündliche Wetter Myszadla

    Heute, 16 September, Montag

    Zeit Temperatur Niederschläge Wind Luftdruck Luftfeuchtigkeit
    00:00 +16°C° 0 mm 5 m/S 749 mmHg 54%
    01:00 +16°C° 0 mm 5 m/S 749 mmHg 52%
    02:00 +16°C° 0 mm 5 m/S 749 mmHg 57%
    03:00 +15°C° 0 mm 5 m/S 749 mmHg 62%
    04:00 +15°C° 0 mm 5 m/S 749 mmHg 66%
    05:00 +14°C° 0 mm 6 m/S 750 mmHg 67%
    06:00 +14°C° 0 mm 6 m/S 750 mmHg 68%
    07:00 +12°C° 0 mm 7 m/S 750 mmHg 68%
    08:00 +12°C° 0 mm 7 m/S 750 mmHg 66%
    09:00 +14°C° 0 mm 7 m/S 750 mmHg 63%
    10:00 +14°C° 0 mm 7 m/S 750 mmHg 61%
    11:00 +14°C° 0 mm 7 m/S 750 mmHg 60%
    12:00 +14°C° 0 mm 7 m/S 750 mmHg 59%
    13:00 +14°C° 0 mm 7 m/S 750 mmHg 58%
    14:00 +15°C° 0 mm 6 m/S 750 mmHg 57%
    15:00 +15°C° 0 mm 6 m/S 750 mmHg 56%
    16:00 +15°C° 0 mm 5 m/S 750 mmHg 55%
    17:00 +14°C° 0 mm 5 m/S 750 mmHg 58%
    18:00 +13°C° 0 mm 5 m/S 749 mmHg 60%
    19:00 +12°C° 0 mm 5 m/S 749 mmHg 62%
    20:00 +11°C° 0 mm 4 m/S 749 mmHg 65%
    21:00 +10°C° 0 mm 4 m/S 749 mmHg 68%
    22:00 +10°C° 0 mm 4 m/S 749 mmHg 72%
    23:00 +8°C° 0 mm 4 m/S 749 mmHg 74%

    Morgen, 17 September, Dienstag

    Zeit Temperatur Niederschläge Wind Luftdruck Luftfeuchtigkeit
    00:00 +8°C° 0 mm 4 m/S 749 mmHg 75%
    01:00 +7°C° 0 mm 4 m/S 749 mmHg 77%
    02:00 +7°C° 0 mm 4 m/S 749 mmHg 79%
    03:00 +7°C° 0 mm 4 m/S 749 mmHg 81%
    04:00 +7°C° 0 mm 4 m/S 748 mmHg 83%
    05:00 +8°C° 0 mm 5 m/S 748 mmHg 80%
    06:00 +8°C° 0 mm 5 m/S 748 mmHg 77%
    07:00 +9°C° 0 mm 6 m/S 748 mmHg 74%
    08:00 +10°C° 0.1 mm 6 m/S 748 mmHg 69%
    09:00 +11°C° 0.1 mm 6 m/S 748 mmHg 65%
    10:00 +12°C° 0.1 mm 7 m/S 747 mmHg 60%
    11:00 +14°C° 0.2 mm 7 m/S 747 mmHg 59%
    12:00 +13°C° 0.2 mm 8 m/S 746 mmHg 58%
    13:00 +13°C° 0.2 mm 8 m/S 745 mmHg 57%
    14:00 +13°C° 0.4 mm 8 m/S 745 mmHg 59%
    15:00 +14°C° 0.4 mm 7 m/S 745 mmHg 61%
    16:00 +12°C° 0.4 mm 7 m/S 744 mmHg 63%
    17:00 +11°C° 0.7 mm 6 m/S 744 mmHg 71%
    18:00 +9°C° 0.7 mm 5 m/S 744 mmHg 78%
    19:00 +8°C° 0.7 mm 3 m/S 744 mmHg 86%
    20:00 +7°C° 0.1 mm 4 m/S 744 mmHg 85%
    21:00 +7°C° 0.1 mm 5 m/S 744 mmHg 84%
    22:00 +7°C° 0.1 mm 5 m/S 744 mmHg 82%
    23:00 +5°C° 0.1 mm 6 m/S 744 mmHg 82%

    übermorgen, 18 September, Mittwoch

    Zeit Temperatur Niederschläge Wind Luftdruck Luftfeuchtigkeit
    00:00 +5°C° 0.1 mm 6 m/S 744 mmHg 82%
    01:00 +5°C° 0.1 mm 7 m/S 744 mmHg 82%
    02:00 +5°C° 0 mm 7 m/S 744 mmHg 82%
    03:00 +4°C° 0 mm 8 m/S 744 mmHg 83%
    04:00 +4°C° 0 mm 8 m/S 745 mmHg 83%
    05:00 +5°C° 0.1 mm 8 m/S 745 mmHg 82%
    06:00 +6°C° 0.1 mm 8 m/S 746 mmHg 82%
    07:00 +7°C° 0.1 mm 8 m/S 747 mmHg 82%
    08:00 +8°C° 0.1 mm 9 m/S 747 mmHg 76%
    09:00 +10°C° 0.1 mm 9 m/S 748 mmHg 71%
    10:00 +10°C° 0.1 mm 9 m/S 749 mmHg 65%
    11:00 +11°C° 0.1 mm 9 m/S 749 mmHg 60%
    12:00 +12°C° 0.1 mm 9 m/S 749 mmHg 55%
    13:00 +13°C° 0.1 mm 9 m/S 750 mmHg 49%
    14:00 +13°C° 0.1 mm 9 m/S 750 mmHg 52%
    15:00 +13°C° 0.1 mm 8 m/S 750 mmHg 55%
    16:00 +12°C° 0.1 mm 8 m/S 750 mmHg 58%
    17:00 +11°C° 0.2 mm 6 m/S 751 mmHg 65%
    18:00 +10°C° 0.2 mm 5 m/S 751 mmHg 73%
    19:00 +8°C° 0.2 mm 4 m/S 751 mmHg 80%
    20:00 +7°C° 0 mm 4 m/S 752 mmHg 83%
    21:00 +7°C° 0 mm 4 m/S 752 mmHg 85%
    22:00 +7°C° 0 mm 3 m/S 752 mmHg 88%
    23:00 +7°C° 0 mm 3 m/S 752 mmHg 88%

    19 September, Donnerstag

    Zeit Temperatur Niederschläge Wind Luftdruck Luftfeuchtigkeit
    00:00 +7°C° 0 mm 3 m/S 753 mmHg 89%
    01:00 +6°C° 0 mm 4 m/S 753 mmHg 89%
    02:00 +6°C° 0 mm 4 m/S 753 mmHg 91%
    03:00 +5°C° 0 mm 4 m/S 753 mmHg 93%
    04:00 +5°C° 0 mm 4 m/S 753 mmHg 94%
    05:00 +5°C° 0 mm 4 m/S 753 mmHg 92%
    06:00 +6°C° 0 mm 4 m/S 753 mmHg 91%
    07:00 +6°C° 0 mm 4 m/S 753 mmHg 89%
    08:00 +8°C° 0.1 mm 4 m/S 754 mmHg 83%
    09:00 +10°C° 0.1 mm 4 m/S 754 mmHg 77%
    10:00 +12°C° 0.1 mm 4 m/S 754 mmHg 71%
    11:00 +12°C° 0.5 mm 5 m/S 754 mmHg 68%
    12:00 +13°C° 0.5 mm 5 m/S 754 mmHg 64%
    13:00 +13°C° 0.5 mm 6 m/S 755 mmHg 61%
    14:00 +13°C° 0.5 mm 5 m/S 755 mmHg 63%
    15:00 +13°C° 0.5 mm 5 m/S 755 mmHg 65%
    16:00 +12°C° 0.5 mm 5 m/S 755 mmHg 67%
    17:00 +10°C° 0 mm 5 m/S 755 mmHg 72%
    18:00 +8°C° 0 mm 4 m/S 756 mmHg 76%
    19:00 +7°C° 0 mm 4 m/S 756 mmHg 80%
    20:00 +6°C° 0 mm 4 m/S 757 mmHg 82%
    21:00 +6°C° 0 mm 4 m/S 757 mmHg 84%
    22:00 +5°C° 0 mm 4 m/S 758 mmHg 86%
    23:00 +5°C° 0 mm 4 m/S 758 mmHg 88%

    20 September, Freitag

    Zeit Temperatur Niederschläge Wind Luftdruck Luftfeuchtigkeit
    00:00 +5°C° 0 mm 4 m/S 758 mmHg 89%
    01:00 +4°C° 0 mm 3 m/S 758 mmHg 90%
    02:00 +4°C° 0 mm 3 m/S 758 mmHg 89%
    03:00 +4°C° 0 mm 3 m/S 758 mmHg 89%
    04:00 +3°C° 0 mm 3 m/S 758 mmHg 88%
    05:00 +4°C° 0 mm 3 m/S 758 mmHg 85%
    06:00 +5°C° 0 mm 4 m/S 758 mmHg 81%
    07:00 +6°C° 0 mm 4 m/S 758 mmHg 78%
    08:00 +7°C° 0 mm 4 m/S 759 mmHg 71%
    09:00 +10°C° 0 mm 4 m/S 759 mmHg 64%
    10:00 +12°C° 0 mm 5 m/S 759 mmHg 57%
    11:00 +12°C° 0 mm 5 m/S 759 mmHg 55%
    12:00 +13°C° 0 mm 5 m/S 759 mmHg 52%
    13:00 +13°C° 0 mm 4 m/S 759 mmHg 50%
    14:00 +13°C° 0.1 mm 4 m/S 758 mmHg 51%
    15:00 +13°C° 0.1 mm 4 m/S 758 mmHg 53%
    16:00 +12°C° 0.1 mm 4 m/S 758 mmHg 55%
    17:00 +11°C° 0 mm 3 m/S 758 mmHg 58%
    18:00 +10°C° 0 mm 3 m/S 758 mmHg 61%
    19:00 +9°C° 0 mm 2 m/S 758 mmHg 65%
    20:00 +9°C° 0 mm 2 m/S 758 mmHg 64%
    21:00 +9°C° 0 mm 2 m/S 758 mmHg 63%
    22:00 +9°C° 0 mm 2 m/S 758 mmHg 62%
    23:00 +9°C° 0.1 mm 2 m/S 758 mmHg 64%

    21 September, Samstag

    Zeit Temperatur Niederschläge Wind Luftdruck Luftfeuchtigkeit
    00:00 +9°C° 0.1 mm 3 m/S 757 mmHg 66%
    01:00 +9°C° 0.1 mm 3 m/S 757 mmHg 68%
    02:00 +8°C° 0.7 mm 4 m/S 757 mmHg 75%
    03:00 +8°C° 0.7 mm 4 m/S 757 mmHg 82%
    04:00 +10°C° 0.7 mm 4 m/S 756 mmHg 88%
    05:00 +10°C° 0 mm 4 m/S 756 mmHg 89%
    06:00 +11°C° 0 mm 4 m/S 756 mmHg 91%
    07:00 +12°C° 0 mm 4 m/S 756 mmHg 92%
    08:00 +12°C° 0.1 mm 4 m/S 757 mmHg 91%
    09:00 +12°C° 0.1 mm 3 m/S 757 mmHg 91%
    10:00 +13°C° 0.1 mm 3 m/S 757 mmHg 90%
    11:00 +14°C° 0.4 mm 2 m/S 757 mmHg 90%
    12:00 +14°C° 0.4 mm 2 m/S 757 mmHg 90%
    13:00 +14°C° 0.4 mm 2 m/S 757 mmHg 90%
    14:00 +15°C° 0.2 mm 2 m/S 757 mmHg 87%
    15:00 +15°C° 0.2 mm 2 m/S 757 mmHg 84%
    16:00 +16°C° 0.2 mm 2 m/S 757 mmHg 82%
    17:00 +15°C° 0 mm 2 m/S 757 mmHg 84%
    18:00 +14°C° 0 mm 1 m/S 758 mmHg 87%
    19:00 +13°C° 0 mm 1 m/S 758 mmHg 90%
    20:00 +12°C° 0 mm 1 m/S 758 mmHg 90%
    21:00 +11°C° 0 mm 1 m/S 758 mmHg 90%
    22:00 +10°C° 0 mm 0 m/S 758 mmHg 90%
    23:00 +10°C° 0 mm 0 m/S 759 mmHg 91%
    Mehr zeigen